Temperature
3 3 3 3 2 2 2 2 2 1 1 2 2 3 3 3 3 3 3 3 3 3 3 3 3 3 3 3 4 4 4 4 4 4 4 5 5 5
2 2 2 2 2 2 2 2 2 1 1 1 2 2 2 2 2 2 3 2 2 3 2 3 3 3 3 3 3 3 3 3 4 4 4 4 4 4
2 2 2 2 2 2 2 1 1 1 1 1 1 1 1 2 2 2 2 2 2 2 2 2 2 2 2 3 3 3 3 3 3 3 3 4 4 4
1 1 1 1 1 1 1 1 1 1 1 1 1 1 1 1 1 1 1 1 2 2 2 2 2 2 2 2 3 3 3 3 3 3 3 3 3 3
1 1 1 1 1 1 1 1 1 1 0 0 0 0 0 0 0 0 1 1 1 1 1 1 1 2 2 2 2 2 2 2 3 3 3 3 3 3
0 0 0 0 0 0 0 0 0 0 0 -0 -0 -0 -0 -0 -1 -0 -0 0 0 0 0 0 1 1 1 1 2 2 2 2 2 2 2 3 3 3
-0 -0 -0 -0 -0 -0 -0 -0 -0 -0 -0 -1 -1 -1 -1 -1 -1 -1 -1 -0 0 -0 0 0 0 0 1 1 1 1 1 2 2 2 2 2 2 2
-1 -1 -1 -1 -1 -1 -1 -1 -1 -1 -1 -1 -1 -1 -1 -1 -1 -1 -1 -1 -1 -1 -1 -0 -0 -0 0 0 1 1 1 1 1 1 1 2 2 2
-1 -1 -1 -1 -1 -1 -1 -1 -1 -1 -1 -1 -1 -1 -1 -1 -1 -1 -1 -1 -1 -1 -1 -1 -1 -1 -0 0 0 0 0 1 1 1 1 1 2 2
-2 -2 -2 -1 -1 -1 -1 -1 -1 -1 -1 -2 -2 -2 -2 -2 -2 -2 -2 -2 -2 -2 -2 -2 -1 -1 -1 -0 0 0 0 0 0 1 1 1 1 1
-2 -2 -2 -2 -2 -2 -2 -2 -2 -2 -2 -2 -2 -2 -2 -2 -2 -2 -2 -2 -2 -2 -2 -2 -2 -1 -1 -0 -0 -0 -0 -0 0 0 0 1 1 1
-3 -3 -3 -3 -3 -2 -2 -2 -2 -2 -2 -2 -2 -2 -2 -2 -2 -2 -2 -2 -2 -2 -2 -2 -2 -2 -2 -1 -1 -0 -0 -0 -0 -0 0 0 1 1
-3 -3 -3 -3 -3 -3 -3 -3 -3 -3 -2 -2 -2 -2 -2 -2 -2 -2 -2 -2 -3 -3 -2 -2 -2 -2 -2 -2 -1 -1 -0 -0 -0 -0 -0 0 0 0
-4 -4 -4 -4 -4 -3 -3 -3 -3 -3 -2 -2 -2 -2 -2 -2 -2 -2 -2 -2 -2 -3 -2 -2 -2 -2 -2 -2 -2 -1 -1 -1 -1 -1 -0 -0 -0 0
-4 -4 -4 -4 -4 -4 -3 -3 -3 -3 -3 -3 -3 -3 -3 -3 -2 -2 -2 -2 -2 -3 -3 -3 -3 -2 -2 -2 -2 -2 -1 -1 -1 -1 -1 -1 -0 -0
-4 -4 -4 -4 -4 -4 -4 -4 -3 -3 -3 -3 -3 -3 -3 -3 -3 -3 -3 -3 -3 -3 -3 -3 -3 -3 -2 -2 -2 -2 -2 -2 -1 -1 -1 -1 -1 -1
-5 -4 -4 -4 -4 -4 -4 -4 -4 -4 -4 -4 -3 -3 -3 -3 -3 -3 -3 -3 -3 -3 -3 -3 -3 -3 -2 -2 -2 -2 -2 -2 -1 -1 -1 -1 -1 -1
-5 -5 -4 -4 -4 -4 -4 -4 -4 -4 -4 -4 -4 -4 -4 -3 -3 -3 -3 -3 -3 -3 -3 -3 -3 -3 -2 -2 -3 -2 -2 -2 -2 -2 -2 -2 -1 -1
-5 -5 -5 -5 -5 -5 -5 -5 -4 -4 -4 -4 -4 -4 -4 -4 -4 -4 -4 -4 -4 -3 -3 -3 -3 -3 -3 -3 -3 -3 -2 -2 -2 -2 -2 -2 -2 -2
-5 -5 -5 -5 -5 -5 -5 -5 -5 -4 -4 -4 -4 -4 -4 -4 -4 -4 -4 -4 -3 -3 -3 -3 -3 -3 -3 -3 -3 -3 -3 -3 -2 -2 -3 -2 -2 -2
-5 -5 -5 -5 -5 -5 -5 -5 -5 -5 -4 -4 -4 -4 -4 -4 -4 -4 -4 -3 -3 -3 -3 -3 -3 -3 -3 -3 -3 -3 -3 -3 -3 -3 -3 -3 -3 -3
-5 -5 -5 -5 -4 -5 -4 -4 -4 -4 -4 -4 -4 -4 -4 -4 -4 -4 -3 -3 -3 -3 -3 -3 -3 -3 -3 -3 -3 -3 -3 -3 -3 -3 -3 -3 -3 -3
-5 -5 -5 -4 -4 -4 -4 -4 -4 -4 -4 -4 -4 -4 -4 -4 -4 -4 -3 -3 -3 -3 -3 -3 -3 -3 -3 -3 -3 -4 -3 -3 -4 -3 -3 -3 -3 -3
Wind_Speed
4 4 4 3 3 3 3 4 4 5 6 4 3 3 4 5 7 6 7 10 12 12 12 12 12 12 13 13 14 14 15 15 15 14 14 15 15 14
3 4 4 3 3 3 3 4 4 5 6 4 4 4 4 5 9 8 8 11 12 12 13 12 12 12 12 12 13 14 15 14 14 14 14 14 14 14
4 4 4 4 3 3 3 4 4 4 7 6 4 4 4 4 6 6 8 7 8 12 13 13 12 12 12 12 13 14 14 14 14 14 14 14 14 14
4 4 5 4 4 3 3 4 4 4 6 8 5 4 4 4 5 5 6 7 7 11 13 13 12 12 12 12 13 13 13 14 14 14 13 14 15 15
4 4 4 4 4 4 4 4 4 4 4 5 5 4 4 4 4 5 5 5 7 9 10 11 12 12 11 12 12 12 12 13 13 13 13 13 12 12
4 4 4 4 4 4 4 4 3 3 3 4 4 4 4 3 3 4 5 4 5 6 8 9 10 11 11 12 12 12 12 11 10 10 10 10 11 11
3 3 3 5 5 5 4 3 4 4 3 4 4 4 4 3 3 3 5 5 5 4 4 5 5 5 7 10 11 11 11 10 9 8 8 9 10 10
3 3 4 5 6 6 7 6 5 5 4 4 4 5 5 4 4 4 4 5 5 3 4 6 4 5 5 5 9 10 9 9 8 8 8 8 9 9
3 3 4 4 5 4 5 7 6 6 7 5 5 6 6 5 5 5 4 5 6 5 4 6 5 5 5 7 9 9 8 7 7 7 7 7 7 7
3 3 4 4 4 4 3 4 4 5 6 5 5 5 6 5 5 5 5 4 4 4 3 4 4 4 5 5 7 7 6 6 6 5 6 6 5 5
4 3 4 4 6 5 3 3 4 4 4 5 6 6 7 6 4 2 3 3 5 4 2 2 3 4 4 4 4 5 5 6 6 6 5 5 5 5
3 4 6 5 6 5 3 3 4 4 3 4 4 5 4 4 5 3 3 4 4 3 2 1 2 3 3 2 3 4 4 5 6 6 6 5 4 2
3 3 4 6 7 6 4 3 4 4 2 2 2 3 3 2 3 3 2 3 4 3 3 2 2 2 2 3 3 2 2 2 3 4 5 5 4 2
3 3 4 7 7 6 4 4 5 4 2 2 2 2 2 3 3 3 3 2 3 4 4 3 2 2 2 3 3 3 2 3 3 2 3 4 4 4
3 5 6 6 6 5 4 5 3 2 1 2 2 2 2 2 2 2 3 2 3 3 3 3 2 2 1 2 3 3 3 2 2 2 2 2 2 2
3 4 6 6 4 3 3 3 2 2 2 2 2 2 2 2 2 2 3 3 2 3 4 3 2 1 1 2 2 3 2 2 2 2 2 2 3 2
2 1 2 2 3 3 2 2 2 2 2 2 2 2 2 2 2 2 2 2 2 2 3 4 4 3 1 1 1 2 2 2 2 2 2 3 3 3
2 1 2 2 2 3 3 2 2 2 2 2 2 2 2 2 2 2 2 2 2 2 3 3 3 2 2 3 3 1 2 2 2 2 2 2 3 3
1 2 2 2 3 3 2 2 2 3 2 2 2 2 2 1 2 2 2 2 2 2 2 2 2 2 2 2 4 5 2 2 2 3 3 2 2 2
2 2 3 3 3 3 2 2 2 3 2 2 2 2 1 1 1 1 1 2 2 2 2 2 2 1 1 0 1 3 6 3 2 2 2 2 2 3
2 2 3 3 3 3 3 2 2 2 2 2 2 2 1 1 1 1 1 2 2 1 2 2 3 3 1 1 2 3 4 6 4 2 1 2 2 3
3 3 3 3 3 2 2 2 2 2 2 2 2 1 1 1 1 1 1 1 1 1 1 2 3 3 2 2 2 3 4 5 7 9 7 4 1 1
3 3 3 3 2 2 2 2 2 2 2 1 1 1 1 1 1 1 1 1 0 1 1 1 2 2 2 2 2 3 4 4 4 5 6 8 7 5
Wind_Direction
242 242 245 251 245 244 244 237 249 279 285 271 278 285 293 300 303 302 296 297 299 299 297 293 290 289 291 288 287 288 287 286 284 283 282 279 274 275
246 245 249 252 250 246 245 247 243 253 272 270 271 286 295 304 306 303 296 299 297 298 298 293 291 291 293 287 286 286 284 283 281 281 282 282 276 277
256 252 256 255 250 254 254 252 251 248 266 281 279 281 284 292 302 298 298 293 291 297 298 293 290 291 295 290 285 285 284 282 279 280 280 283 280 277
260 258 260 260 256 254 251 253 254 250 258 276 284 285 283 284 293 297 302 297 290 296 297 297 292 291 292 295 291 286 286 285 281 278 279 282 283 277
264 264 264 258 261 263 259 257 260 266 259 268 282 288 288 292 300 301 300 299 296 300 301 301 297 295 296 297 299 293 292 289 280 275 275 278 282 280
271 265 267 262 259 262 262 256 258 265 269 273 282 290 289 289 292 301 305 299 298 304 301 302 304 302 299 299 303 303 300 294 288 280 278 280 284 284
287 277 272 279 280 275 271 261 255 256 264 271 278 291 291 300 294 294 295 304 300 295 298 304 308 307 307 305 305 306 304 297 290 284 281 284 288 286
291 297 289 281 286 289 286 281 270 259 257 261 272 277 281 286 292 292 296 304 305 297 304 304 306 300 301 307 311 312 306 302 296 292 290 289 290 289
283 288 295 297 297 286 290 296 291 283 271 261 262 269 277 281 283 286 287 287 287 294 300 300 300 296 304 309 309 311 311 309 304 300 297 296 296 294
275 273 278 288 290 288 287 297 289 280 276 272 262 268 271 272 264 269 276 285 291 290 282 288 297 301 306 311 310 313 319 321 313 313 317 318 318 315
294 291 292 284 294 302 292 289 297 297 304 297 291 291 288 286 284 290 294 297 297 296 282 269 292 307 306 303 318 327 327 331 334 335 333 337 339 331
303 298 297 297 301 308 286 270 285 294 308 318 317 321 321 315 309 286 271 283 295 292 280 288 294 322 320 314 328 345 345 339 339 339 339 341 338 333
298 301 300 311 310 312 306 281 284 299 302 305 311 316 325 326 320 314 294 273 277 281 281 284 290 298 281 303 318 328 343 347 349 342 340 345 345 340
293 295 303 317 318 317 310 304 313 320 313 315 312 313 314 312 313 320 328 318 295 279 280 274 272 282 292 302 306 322 335 341 342 340 348 351 353 351
294 306 313 321 321 316 317 326 328 319 308 304 302 301 295 289 303 322 334 346 354 342 332 324 289 285 277 279 295 309 320 331 345 359 7 9 1 356
306 314 321 325 327 325 331 331 323 302 297 288 293 298 308 317 323 319 314 324 344 350 354 4 1 327 304 294 296 311 320 314 349 359 6 12 18 23
315 320 328 335 341 343 343 335 324 319 313 305 302 309 316 319 324 325 325 336 346 342 345 357 17 29 2 325 323 327 335 345 341 356 27 27 24 31
337 315 317 319 315 318 321 320 315 307 300 297 295 291 298 306 318 329 334 341 345 340 341 338 345 359 19 25 10 340 359 356 359 15 30 37 24 24
337 303 296 294 294 295 296 298 300 298 295 291 291 292 293 293 303 320 337 342 341 341 342 340 348 20 34 11 0 14 19 5 18 26 29 40 30 17
316 297 293 292 286 282 283 284 291 299 303 300 293 285 278 281 296 317 327 331 331 342 355 360 2 7 22 310 341 360 10 9 17 27 26 40 36 26
308 299 293 291 286 277 277 281 283 288 290 295 295 295 285 277 291 310 319 332 341 350 2 349 334 349 13 56 53 20 18 26 35 18 350 36 34 39
297 293 293 290 287 281 279 284 283 284 286 290 294 294 292 276 263 283 291 305 331 346 350 352 1 19 38 58 56 28 19 24 33 37 39 43 65 63
292 291 292 292 287 285 277 272 276 277 272 278 283 292 295 299 289 282 277 283 321 25 28 25 22 35 41 50 58 37 25 24 33 41 42 43 57 62
Height
1450 1450 1450 1450 1450 1449 1449 1449 1448 1443 1440 1439 1440 1439 1438 1436 1435 1433 1432 1431 1430 1429 1428 1427 1426 1424 1423 1421 1421 1420 1419 1419 1419 1419 1419 1419 1420 1420
1446 1446 1445 1445 1445 1444 1444 1444 1443 1441 1437 1435 1435 1434 1433 1432 1430 1429 1427 1426 1425 1424 1422 1421 1420 1418 1416 1415 1414 1414 1414 1413 1413 1413 1413 1414 1414 1414
1441 1441 1441 1441 1440 1440 1439 1439 1438 1437 1434 1431 1431 1430 1428 1427 1425 1424 1422 1421 1420 1418 1417 1416 1415 1413 1411 1410 1409 1408 1408 1407 1407 1407 1407 1408 1408 1408
1437 1436 1436 1436 1435 1435 1435 1434 1433 1432 1430 1427 1425 1425 1424 1422 1421 1419 1418 1416 1415 1414 1412 1411 1409 1408 1406 1404 1403 1402 1402 1401 1401 1401 1401 1402 1402 1402
1433 1433 1432 1432 1431 1431 1430 1429 1428 1427 1426 1424 1421 1420 1419 1418 1416 1415 1414 1412 1411 1409 1408 1406 1405 1403 1401 1400 1398 1397 1396 1396 1395 1395 1395 1396 1396 1396
1429 1429 1428 1428 1427 1427 1426 1425 1424 1423 1422 1420 1418 1416 1415 1414 1413 1411 1409 1408 1407 1405 1404 1402 1400 1398 1396 1395 1394 1392 1391 1390 1390 1389 1389 1390 1390 1390
1425 1425 1424 1424 1423 1423 1422 1421 1420 1419 1418 1416 1414 1413 1411 1410 1409 1408 1406 1404 1403 1402 1399 1397 1396 1393 1391 1390 1388 1387 1386 1385 1385 1385 1385 1385 1385 1385
1421 1421 1421 1420 1419 1419 1419 1418 1417 1416 1414 1413 1411 1410 1408 1407 1406 1405 1403 1401 1398 1398 1396 1393 1392 1389 1387 1386 1384 1383 1382 1381 1381 1381 1381 1381 1381 1381
1418 1418 1417 1416 1416 1415 1414 1414 1413 1412 1411 1410 1408 1407 1406 1405 1403 1402 1400 1399 1396 1395 1393 1389 1388 1385 1383 1382 1380 1380 1379 1378 1378 1378 1377 1377 1377 1377
1415 1414 1413 1413 1412 1412 1411 1409 1408 1408 1407 1406 1405 1404 1403 1402 1401 1400 1398 1395 1393 1391 1390 1386 1383 1381 1380 1378 1377 1377 1376 1376 1375 1375 1375 1375 1374 1374
1411 1411 1410 1409 1409 1408 1407 1406 1404 1404 1403 1403 1402 1401 1400 1399 1398 1396 1394 1392 1389 1387 1386 1384 1380 1378 1377 1375 1375 1374 1374 1373 1373 1373 1372 1372 1372 1372
1408 1407 1407 1406 1405 1405 1404 1403 1401 1400 1400 1399 1399 1398 1397 1395 1394 1393 1392 1390 1387 1385 1383 1381 1379 1377 1375 1373 1373 1372 1372 1372 1371 1371 1370 1370 1370 1370
1405 1404 1403 1403 1402 1402 1401 1400 1399 1398 1397 1396 1395 1394 1393 1392 1391 1390 1389 1388 1386 1383 1382 1380 1378 1376 1375 1373 1371 1371 1370 1370 1369 1369 1369 1368 1368 1368
1402 1401 1400 1400 1399 1399 1398 1397 1396 1396 1395 1393 1392 1391 1390 1389 1388 1387 1386 1384 1383 1381 1380 1379 1377 1375 1374 1372 1370 1369 1369 1368 1368 1367 1367 1367 1366 1366
1400 1399 1398 1398 1397 1396 1395 1394 1394 1393 1392 1391 1390 1389 1388 1387 1386 1385 1383 1382 1380 1379 1378 1377 1375 1374 1373 1371 1369 1368 1367 1367 1366 1366 1365 1365 1364 1364
1398 1397 1396 1395 1394 1393 1393 1392 1391 1391 1390 1389 1388 1387 1386 1385 1384 1383 1381 1380 1378 1377 1376 1375 1374 1373 1371 1370 1369 1367 1366 1366 1365 1365 1364 1363 1363 1363
1395 1394 1393 1393 1392 1391 1390 1390 1389 1389 1388 1387 1386 1386 1385 1384 1383 1381 1380 1379 1377 1375 1374 1374 1373 1372 1371 1370 1368 1367 1366 1365 1365 1364 1364 1363 1363 1363
1393 1392 1391 1390 1389 1389 1388 1388 1387 1387 1386 1385 1385 1384 1383 1382 1381 1380 1379 1378 1376 1375 1374 1373 1372 1371 1370 1369 1369 1367 1366 1366 1365 1365 1364 1363 1362 1363
1391 1390 1389 1388 1388 1387 1387 1386 1385 1385 1384 1384 1383 1382 1381 1381 1380 1379 1378 1377 1376 1375 1374 1373 1372 1371 1370 1369 1369 1369 1367 1366 1365 1365 1364 1364 1363 1363
1389 1388 1387 1387 1386 1385 1385 1384 1384 1383 1382 1382 1381 1381 1380 1380 1379 1378 1377 1377 1376 1375 1374 1373 1373 1372 1371 1371 1370 1369 1369 1367 1366 1365 1365 1364 1364 1364
1387 1386 1385 1385 1384 1384 1383 1383 1382 1382 1381 1381 1380 1380 1379 1379 1378 1378 1377 1377 1376 1375 1374 1374 1374 1374 1373 1372 1371 1370 1370 1369 1368 1367 1366 1365 1364 1364
1385 1384 1384 1383 1382 1382 1381 1381 1381 1380 1380 1379 1379 1379 1379 1378 1378 1377 1377 1377 1376 1376 1375 1375 1375 1374 1374 1373 1372 1371 1371 1370 1369 1368 1368 1367 1366 1365
1384 1383 1382 1382 1381 1380 1380 1380 1379 1379 1378 1378 1378 1378 1378 1377 1377 1377 1377 1377 1376 1376 1376 1376 1375 1375 1375 1374 1373 1373 1372 1371 1370 1369 1369 1369 1368 1367